Location: Bourth
(48.7670°N, 0.8113°E)
Time: 06:02:29
(UTC+02:00)

Envisat - Visible Passes

Search period start: 18 September 2021 00:00
Search period end: 28 September 2021 00:00
Orbit: 764 x 766 km, 98.2° (Epoch: 17 September)

Date Brightness Start Highest point End Pass type
(mag) Time Alt. Az. Time Alt. Az. Time Alt. Az.
18 Sep 3.8 06:58:27 10° NNE 07:03:29 58° E 07:08:28 10° S visible
19 Sep 5.2 06:22:01 10° NE 06:26:24 28° E 06:30:46 10° SSE visible
20 Sep 6.0 05:46:30 10° NE 05:49:08 14° E 05:51:46 10° ESE visible
21 Sep 4.2 06:47:01 10° NNE 06:51:55 46° E 06:56:48 10° S visible
22 Sep 5.5 06:10:45 10° NE 06:14:47 23° E 06:18:48 10° SE visible
23 Sep 6.2 05:36:03 10° ENE 05:37:27 11° E 05:38:51 10° E visible
23 Sep 3.3 07:12:13 10° NNE 07:17:20 77° ESE 07:22:25 10° S visible
24 Sep 4.6 06:35:37 10° NNE 06:40:21 37° E 06:45:03 10° SSE visible
25 Sep 5.8 05:59:36 10° NE 06:03:09 19° E 06:06:41 10° SE visible
26 Sep 3.6 07:00:45 10° NNE 07:05:48 62° E 07:10:50 10° S visible
27 Sep 5.0 06:24:16 10° NNE 06:28:46 30° E 06:33:12 10° SSE visible
